Simultaneous Nadir Overpasses (SNOs) Predictions

Prediction of SNOs between NOAA-19 and TERRA Satellite Orbit:

Table of predicted SNOs for the next 14.0 days since TLE Epoch: 11/16/2024
Index Date (NOAA-19) Time (NOAA-19) Lat,Lon (NOAA-19) SZA (NOAA-19 ) Date (TERRA) Time (TERRA) Lat,Lon (TERRA) SZA (TERRA ) Distance(km) Time Diff (sec)
1 11/17/2024 13:09:26 56.03, -41.05 76.93 11/17/2024 13:09:33 56.03, -41.04 76.92 0.62 7
2 11/17/2024 13:53:30 -77.44, 159.58 83.20 11/17/2024 13:52:17 -77.93, 157.25 82.82 76.97 73
3 11/19/2024 16:08:42 53.70, -86.96 75.46 11/19/2024 16:09:04 53.69, -86.96 75.43 0.73 22
4 11/19/2024 16:58:01 -59.13, 83.63 99.91 11/19/2024 16:56:53 -59.14, 83.66 99.87 1.87 68
5 11/21/2024 19:08:09 50.71,-133.06 73.43 11/21/2024 19:08:45 50.71,-133.05 73.39 0.09 36
6 11/21/2024 19:57:05 -57.49, 37.93 100.85 11/21/2024 19:56:12 -57.49, 37.93 100.81 0.51 53
7 11/23/2024 22:07:32 47.92,-178.91 71.57 11/23/2024 22:08:22 47.91,-178.93 71.51 1.78 50
8 11/23/2024 22:56:19 -55.26, -8.01 102.29 11/23/2024 22:55:40 -55.26, -8.02 102.27 0.90 39
9 11/26/2024 01:05:51 48.77, 136.87 72.70 11/26/2024 01:06:56 48.82, 136.68 72.72 14.62 65
10 11/26/2024 01:55:43 -52.44, -54.12 104.24 11/26/2024 01:55:17 -52.44, -54.12 104.22 0.42 26
11 11/28/2024 04:55:01 -49.94, -99.93 105.93 11/28/2024 04:54:48 -49.93, -99.94 105.92 1.27 13



Historial Predications of SNOs between NOAA-19 and TERRA
